Time,TemperatureF,DewpointF,PressureIn,WindDirection,WindDirectionDegrees,WindSpeedMPH,WindSpeedGustMPH,Humidity,HourlyPrecipIn,Conditions,Clouds,dailyrainin,SoftwareType,DateUTC
2013-11-15 00:01:00,72.9,56.8,30.04,ENE,68,7.8,13.6,57,0.00,,---,0.00,VWS V13.01,2013-11-15 05:01:00,
2013-11-15 00:06:00,72.9,56.8,30.04,ENE,68,7.8,13.6,57,0.00,,---,0.00,VWS V13.01,2013-11-15 05:06:00,
2013-11-15 00:11:00,72.9,56.8,30.04,East,90,1.8,7.8,57,0.00,,---,0.00,VWS V13.01,2013-11-15 05:11:00,
2013-11-15 00:16:00,73.0,56.9,30.04,ENE,68,6.5,10.5,57,0.00,,---,0.00,VWS V13.01,2013-11-15 05:16:00,
2013-11-15 00:21:00,73.0,56.9,30.04,SSE,158,3.8,10.5,57,0.00,,---,0.00,VWS V13.01,2013-11-15 05:21:00,
2013-11-15 00:26:00,73.2,57.1,30.04,ESE,112,0.0,10.5,57,0.00,,---,0.00,VWS V13.01,2013-11-15 05:26:00,
2013-11-15 00:31:00,73.0,56.9,30.04,ENE,68,6.5,10.5,57,0.00,,---,0.00,VWS V13.01,2013-11-15 05:31:00,
2013-11-15 00:36:00,73.2,57.1,30.04,ENE,68,0.0,10.5,57,0.00,,---,0.00,VWS V13.01,2013-11-15 05:36:00,
2013-11-15 00:41:00,73.0,56.9,30.04,ENE,68,2.0,10.5,57,0.00,,---,0.00,VWS V13.01,2013-11-15 05:41:00,
2013-11-15 00:46:00,73.0,56.9,30.03,ESE,112,4.5,10.5,57,0.00,,---,0.00,VWS V13.01,2013-11-15 05:46:00,
2013-11-15 00:51:00,73.0,56.9,30.03,ENE,68,0.0,10.5,57,0.00,,---,0.00,VWS V13.01,2013-11-15 05:51:00,
2013-11-15 00:56:00,73.2,57.1,30.03,ESE,112,4.0,10.5,57,0.00,,---,0.00,VWS V13.01,2013-11-15 05:56:00,
2013-11-15 01:01:00,73.4,57.3,30.03,ENE,68,11.4,12.8,57,0.00,,---,0.00,VWS V13.01,2013-11-15 06:01:00,
2013-11-15 01:06:00,73.0,56.9,30.02,East,90,4.3,12.8,57,0.00,,---,0.00,VWS V13.01,2013-11-15 06:06:00,
2013-11-15 01:11:00,73.2,57.1,30.02,East,90,6.5,14.1,57,0.00,,---,0.00,VWS V13.01,2013-11-15 06:11:00,
2013-11-15 01:16:00,73.4,57.3,30.02,East,90,4.5,14.1,57,0.00,,---,0.00,VWS V13.01,2013-11-15 06:16:00,
2013-11-15 01:21:00,73.4,57.3,30.02,ESE,112,0.0,14.1,57,0.00,,---,0.00,VWS V13.01,2013-11-15 06:21:00,
2013-11-15 01:26:00,73.2,56.6,30.02,ESE,112,4.3,14.1,56,0.00,,---,0.00,VWS V13.01,2013-11-15 06:26:00,
2013-11-15 01:31:00,73.2,56.1,30.03,East,90,0.0,14.1,55,0.00,,---,0.00,VWS V13.01,2013-11-15 06:31:00,
2013-11-15 01:36:00,73.2,56.1,30.02,SE,135,2.5,14.1,55,0.00,,---,0.00,VWS V13.01,2013-11-15 06:36:00,
2013-11-15 01:41:00,73.0,55.9,30.02,ENE,68,0.0,14.1,55,0.00,,---,0.00,VWS V13.01,2013-11-15 06:41:00,
2013-11-15 01:46:00,73.2,56.1,30.02,ESE,112,2.5,14.1,55,0.00,,---,0.00,VWS V13.01,2013-11-15 06:46:00,
2013-11-15 01:51:00,73.2,55.1,30.01,ESE,112,0.0,14.1,53,0.00,,---,0.00,VWS V13.01,2013-11-15 06:51:00,
2013-11-15 01:56:00,73.0,54.9,30.02,ENE,68,0.0,14.1,53,0.00,,---,0.00,VWS V13.01,2013-11-15 06:56:00,
2013-11-15 02:01:00,73.0,54.9,30.01,SSE,158,3.6,4.7,53,0.00,,---,0.00,VWS V13.01,2013-11-15 07:01:00,
2013-11-15 02:06:00,72.9,54.8,30.02,SE,135,0.0,4.7,53,0.00,,---,0.00,VWS V13.01,2013-11-15 07:06:00,
2013-11-15 02:11:00,72.9,54.8,30.01,SE,135,0.0,4.7,53,0.00,,---,0.00,VWS V13.01,2013-11-15 07:11:00,
2013-11-15 02:16:00,72.5,54.4,30.01,ENE,68,0.0,4.7,53,0.00,,---,0.00,VWS V13.01,2013-11-15 07:16:00,
2013-11-15 02:21:00,72.5,54.4,30.01,ENE,68,0.0,4.7,53,0.00,,---,0.00,VWS V13.01,2013-11-15 07:21:00,
2013-11-15 02:26:00,72.7,54.6,30.01,ESE,112,0.0,4.7,53,0.00,,---,0.00,VWS V13.01,2013-11-15 07:26:00,
2013-11-15 02:31:00,72.5,54.4,30.01,ESE,112,0.0,4.7,53,0.00,,---,0.00,VWS V13.01,2013-11-15 07:31:00,
2013-11-15 02:36:00,72.5,54.4,30.01,ENE,68,1.1,4.7,53,0.00,,---,0.00,VWS V13.01,2013-11-15 07:36:00,
2013-11-15 02:41:00,72.5,54.9,30.01,ESE,112,0.0,4.7,54,0.00,,---,0.00,VWS V13.01,2013-11-15 07:41:00,
2013-11-15 02:46:00,72.5,54.9,30.00,ENE,68,0.0,4.7,54,0.00,,---,0.00,VWS V13.01,2013-11-15 07:46:00,
2013-11-15 02:51:00,72.5,54.9,30.00,East,90,1.1,4.7,54,0.00,,---,0.00,VWS V13.01,2013-11-15 07:51:00,
2013-11-15 02:56:00,72.5,54.9,29.99,ENE,68,4.0,4.7,54,0.00,,---,0.00,VWS V13.01,2013-11-15 07:56:00,
2013-11-15 03:01:00,72.5,55.9,29.99,East,90,2.7,3.1,56,0.00,,---,0.00,VWS V13.01,2013-11-15 08:01:00,
2013-11-15 03:06:00,72.5,55.9,29.99,ESE,112,0.0,4.7,56,0.00,,---,0.00,VWS V13.01,2013-11-15 08:06:00,
2013-11-15 03:11:00,72.7,56.1,29.99,SE,135,3.6,4.7,56,0.00,,---,0.00,VWS V13.01,2013-11-15 08:11:00,
2013-11-15 03:16:00,72.7,56.1,29.99,ENE,68,0.0,7.8,56,0.00,,---,0.00,VWS V13.01,2013-11-15 08:16:00,
2013-11-15 03:21:00,72.9,56.3,29.99,ENE,68,1.8,7.8,56,0.00,,---,0.00,VWS V13.01,2013-11-15 08:21:00,
2013-11-15 03:26:00,72.9,57.2,29.99,ENE,68,4.5,7.8,58,0.00,,---,0.00,VWS V13.01,2013-11-15 08:26:00,
2013-11-15 03:31:00,72.9,57.2,29.99,ESE,112,0.0,7.8,58,0.00,,---,0.00,VWS V13.01,2013-11-15 08:31:00,
2013-11-15 03:36:00,73.0,57.4,29.99,ESE,112,0.0,8.3,58,0.00,,---,0.00,VWS V13.01,2013-11-15 08:36:00,
2013-11-15 03:41:00,73.0,57.4,30.00,East,90,0.9,8.3,58,0.00,,---,0.00,VWS V13.01,2013-11-15 08:41:00,
2013-11-15 03:46:00,73.0,57.4,30.00,East,90,5.6,8.3,58,0.00,,---,0.00,VWS V13.01,2013-11-15 08:46:00,
2013-11-15 03:51:00,73.2,57.6,30.00,East,90,1.8,8.3,58,0.00,,---,0.00,VWS V13.01,2013-11-15 08:51:00,
2013-11-15 03:56:00,73.2,57.6,29.99,ESE,112,1.8,8.3,58,0.00,,---,0.00,VWS V13.01,2013-11-15 08:56:00,
2013-11-15 04:01:00,73.4,57.7,29.99,East,90,1.3,5.4,58,0.00,,---,0.00,VWS V13.01,2013-11-15 09:01:00,
2013-11-15 04:06:00,73.4,57.7,29.99,ESE,112,0.0,5.4,58,0.00,,---,0.00,VWS V13.01,2013-11-15 09:06:00,
2013-11-15 04:11:00,73.2,58.0,29.99,ESE,112,1.8,5.4,59,0.00,,---,0.00,VWS V13.01,2013-11-15 09:11:00,
2013-11-15 04:16:00,73.2,58.0,29.99,ESE,112,1.3,5.4,59,0.00,,---,0.00,VWS V13.01,2013-11-15 09:16:00,
2013-11-15 04:21:00,73.0,57.9,29.99,East,90,2.2,5.4,59,0.00,,---,0.00,VWS V13.01,2013-11-15 09:21:00,
2013-11-15 04:26:00,73.0,57.9,29.99,ENE,68,2.5,5.4,59,0.00,,---,0.00,VWS V13.01,2013-11-15 09:26:00,
2013-11-15 04:31:00,73.2,58.0,29.99,ENE,68,2.2,7.2,59,0.00,,---,0.00,VWS V13.01,2013-11-15 09:31:00,
2013-11-15 04:36:00,73.4,58.2,29.99,East,90,1.3,7.2,59,0.00,,---,0.00,VWS V13.01,2013-11-15 09:36:00,
2013-11-15 04:41:00,73.4,58.2,29.99,ENE,68,3.4,7.2,59,0.00,,---,0.00,VWS V13.01,2013-11-15 09:41:00,
2013-11-15 04:46:00,73.2,58.0,29.99,East,90,4.5,7.2,59,0.00,,---,0.00,VWS V13.01,2013-11-15 09:46:00,
2013-11-15 04:51:00,73.4,59.2,29.99,ENE,68,4.9,7.6,61,0.00,,---,0.00,VWS V13.01,2013-11-15 09:51:00,
2013-11-15 04:56:00,73.4,59.6,29.99,SE,135,3.8,7.6,62,0.00,,---,0.00,VWS V13.01,2013-11-15 09:56:00,
2013-11-15 05:01:00,73.4,59.6,29.99,SSE,158,3.1,5.1,62,0.00,,---,0.00,VWS V13.01,2013-11-15 10:01:00,
2013-11-15 05:06:00,73.2,59.4,29.99,East,90,5.4,8.3,62,0.00,,---,0.00,VWS V13.01,2013-11-15 10:06:00,
2013-11-15 05:11:00,73.2,59.4,29.99,East,90,0.7,9.4,62,0.00,,---,0.00,VWS V13.01,2013-11-15 10:11:00,
2013-11-15 05:16:00,73.2,59.4,29.99,ESE,112,1.3,9.4,62,0.00,,---,0.00,VWS V13.01,2013-11-15 10:16:00,
2013-11-15 05:21:00,73.2,59.4,29.99,ESE,112,0.0,9.4,62,0.00,,---,0.00,VWS V13.01,2013-11-15 10:21:00,
2013-11-15 05:26:00,73.4,59.6,29.99,East,90,3.1,9.4,62,0.00,,---,0.00,VWS V13.01,2013-11-15 10:26:00,
2013-11-15 05:31:00,73.4,59.6,29.99,East,90,3.1,12.3,62,0.00,,---,0.00,VWS V13.01,2013-11-15 10:31:00,
2013-11-15 05:36:00,73.6,59.8,29.99,East,90,4.0,12.3,62,0.00,,---,0.00,VWS V13.01,2013-11-15 10:36:00,
2013-11-15 05:41:00,73.6,59.8,29.99,East,90,6.0,12.3,62,0.00,,---,0.00,VWS V13.01,2013-11-15 10:41:00,
2013-11-15 05:46:00,73.8,59.9,30.00,East,90,5.4,12.3,62,0.00,,---,0.00,VWS V13.01,2013-11-15 10:46:00,
2013-11-15 05:51:00,73.8,59.9,30.00,East,90,5.6,12.3,62,0.00,,---,0.00,VWS V13.01,2013-11-15 10:51:00,
2013-11-15 05:56:00,73.8,59.9,30.00,ENE,68,1.1,12.3,62,0.00,,---,0.00,VWS V13.01,2013-11-15 10:56:00,
2013-11-15 06:01:00,73.8,59.9,30.00,East,90,1.3,5.4,62,0.00,,---,0.00,VWS V13.01,2013-11-15 11:01:00,
2013-11-15 06:06:00,73.8,60.8,30.00,East,90,6.0,9.6,64,0.00,,---,0.00,VWS V13.01,2013-11-15 11:06:00,
2013-11-15 06:11:00,73.9,61.0,30.00,ENE,68,5.1,9.6,64,0.00,,---,0.00,VWS V13.01,2013-11-15 11:11:00,
2013-11-15 06:16:00,73.9,61.0,30.00,East,90,2.2,9.6,64,0.00,,---,0.00,VWS V13.01,2013-11-15 11:16:00,
2013-11-15 06:21:00,74.1,61.2,30.00,East,90,9.2,9.8,64,0.00,,---,0.00,VWS V13.01,2013-11-15 11:21:00,
2013-11-15 06:26:00,74.1,61.2,30.00,ENE,68,4.5,9.8,64,0.00,,---,0.00,VWS V13.01,2013-11-15 11:26:00,
2013-11-15 06:31:00,74.3,61.3,30.00,ENE,68,3.8,11.2,64,0.00,,---,0.00,VWS V13.01,2013-11-15 11:31:00,
2013-11-15 06:36:00,74.3,60.9,30.00,SE,135,5.1,11.2,63,0.00,,---,0.00,VWS V13.01,2013-11-15 11:36:00,
2013-11-15 06:41:00,74.3,60.9,30.01,ESE,112,2.5,11.2,63,0.00,,---,0.00,VWS V13.01,2013-11-15 11:41:00,
2013-11-15 06:46:00,74.3,60.9,30.01,ENE,68,2.7,11.2,63,0.00,,---,0.00,VWS V13.01,2013-11-15 11:46:00,
2013-11-15 06:51:00,74.1,60.7,30.01,ESE,112,0.0,11.2,63,0.00,,---,0.00,VWS V13.01,2013-11-15 11:51:00,
2013-11-15 06:56:00,74.1,60.7,30.01,ENE,68,4.5,11.2,63,0.00,,---,0.00,VWS V13.01,2013-11-15 11:56:00,
2013-11-15 07:01:00,74.1,60.7,30.01,East,90,2.9,7.8,63,0.00,,---,0.00,VWS V13.01,2013-11-15 12:01:00,
2013-11-15 07:05:00,74.1,60.7,30.02,SE,135,2.2,7.8,63,0.00,,---,0.00,VWS V13.01,2013-11-15 12:05:00,
2013-11-15 07:10:00,74.3,60.9,30.02,SE,135,3.1,9.2,63,0.00,,---,0.00,VWS V13.01,2013-11-15 12:10:00,
2013-11-15 07:15:00,74.5,61.1,30.01,SE,135,3.6,9.2,63,0.00,,---,0.00,VWS V13.01,2013-11-15 12:15:00,
2013-11-15 07:20:00,74.7,61.2,30.01,ENE,68,0.0,9.2,63,0.00,,---,0.00,VWS V13.01,2013-11-15 12:20:00,
2013-11-15 07:25:00,74.8,61.4,30.01,ESE,112,4.7,9.2,63,0.00,,---,0.00,VWS V13.01,2013-11-15 12:25:00,
2013-11-15 07:30:00,75.2,61.8,30.01,ESE,112,3.4,9.2,63,0.00,,---,0.00,VWS V13.01,2013-11-15 12:30:00,
2013-11-15 07:35:00,75.4,61.9,30.01,ESE,112,2.5,9.2,63,0.00,,---,0.00,VWS V13.01,2013-11-15 12:35:00,
2013-11-15 07:40:00,75.6,62.1,30.02,ESE,112,3.6,9.2,63,0.00,,---,0.00,VWS V13.01,2013-11-15 12:40:00,
2013-11-15 07:45:00,75.7,61.8,30.02,SE,135,3.6,9.2,62,0.00,,---,0.00,VWS V13.01,2013-11-15 12:45:00,
2013-11-15 07:50:00,75.9,62.0,30.02,East,90,4.9,9.2,62,0.00,,---,0.00,VWS V13.01,2013-11-15 12:50:00,
2013-11-15 07:55:00,76.1,62.2,30.02,East,90,7.4,9.2,62,0.00,,---,0.00,VWS V13.01,2013-11-15 12:55:00,
2013-11-15 08:00:00,76.5,62.5,30.02,ESE,112,4.0,4.0,62,0.00,,---,0.00,VWS V13.01,2013-11-15 13:00:00,
2013-11-15 08:05:00,76.5,62.5,30.03,East,90,2.7,6.7,62,0.00,,---,0.00,VWS V13.01,2013-11-15 13:05:00,
2013-11-15 08:10:00,76.6,62.7,30.03,NE,45,2.0,9.4,62,0.00,,---,0.00,VWS V13.01,2013-11-15 13:10:00,
2013-11-15 08:15:00,76.6,62.7,30.03,ENE,68,2.7,9.4,62,0.00,,---,0.00,VWS V13.01,2013-11-15 13:15:00,
2013-11-15 08:20:00,76.6,60.3,30.03,ENE,68,2.0,9.4,57,0.00,,---,0.00,VWS V13.01,2013-11-15 13:20:00,
2013-11-15 08:25:00,76.6,60.3,30.03,ESE,112,1.8,9.4,57,0.00,,---,0.00,VWS V13.01,2013-11-15 13:25:00,
2013-11-15 08:30:00,76.6,60.3,30.03,ENE,68,2.7,9.4,57,0.00,,---,0.00,VWS V13.01,2013-11-15 13:30:00,
2013-11-15 08:35:00,76.6,60.3,30.04,NE,45,5.1,9.4,57,0.00,,---,0.00,VWS V13.01,2013-11-15 13:35:00,
2013-11-15 08:40:00,76.8,60.5,30.04,ENE,68,3.1,9.4,57,0.00,,---,0.00,VWS V13.01,2013-11-15 13:40:00,
2013-11-15 08:45:00,77.2,60.8,30.04,East,90,3.1,9.4,57,0.00,,---,0.00,VWS V13.01,2013-11-15 13:45:00,
2013-11-15 08:50:00,77.4,61.0,30.04,East,90,1.3,9.4,57,0.00,,---,0.00,VWS V13.01,2013-11-15 13:50:00,
2013-11-15 08:55:00,77.4,61.0,30.04,East,90,2.2,9.4,57,0.00,,---,0.00,VWS V13.01,2013-11-15 13:55:00,
2013-11-15 09:00:00,77.5,61.1,30.04,ENE,68,0.0,2.2,57,0.00,,---,0.00,VWS V13.01,2013-11-15 14:00:00,
2013-11-15 09:05:00,77.7,61.3,30.04,ENE,68,2.9,5.6,57,0.00,,---,0.00,VWS V13.01,2013-11-15 14:05:00,
2013-11-15 09:10:00,77.9,59.4,30.04,ENE,68,4.7,6.9,53,0.00,,---,0.00,VWS V13.01,2013-11-15 14:10:00,
2013-11-15 09:15:00,78.1,59.6,30.04,ESE,112,0.0,8.1,53,0.00,,---,0.00,VWS V13.01,2013-11-15 14:15:00,
2013-11-15 09:20:00,78.6,60.1,30.04,ENE,68,1.3,8.1,53,0.00,,---,0.00,VWS V13.01,2013-11-15 14:20:00,
2013-11-15 09:25:00,79.0,60.4,30.04,NE,45,8.3,8.3,53,0.00,,---,0.00,VWS V13.01,2013-11-15 14:25:00,
2013-11-15 09:30:00,79.0,60.4,30.04,East,90,1.8,8.3,53,0.00,,---,0.00,VWS V13.01,2013-11-15 14:30:00,
2013-11-15 09:35:00,79.0,60.9,30.05,ENE,68,4.3,10.7,54,0.00,,---,0.00,VWS V13.01,2013-11-15 14:35:00,
2013-11-15 09:40:00,79.0,60.9,30.05,ENE,68,1.1,10.7,54,0.00,,---,0.00,VWS V13.01,2013-11-15 14:40:00,
2013-11-15 09:45:00,79.0,60.9,30.05,ENE,68,1.6,10.7,54,0.00,,---,0.00,VWS V13.01,2013-11-15 14:45:00,
2013-11-15 09:50:00,79.0,60.9,30.05,East,90,3.8,10.7,54,0.00,,---,0.00,VWS V13.01,2013-11-15 14:50:00,
2013-11-15 09:55:00,79.2,61.1,30.05,East,90,2.5,10.7,54,0.00,,---,0.00,VWS V13.01,2013-11-15 14:55:00,
2013-11-15 10:00:00,79.2,60.6,30.05,ENE,68,5.6,5.6,53,0.00,,---,0.00,VWS V13.01,2013-11-15 15:00:00,
2013-11-15 10:05:00,79.5,60.9,30.05,ENE,68,0.0,7.4,53,0.00,,---,0.00,VWS V13.01,2013-11-15 15:05:00,
2013-11-15 10:10:00,79.5,60.9,30.04,East,90,0.0,7.4,53,0.00,,---,0.00,VWS V13.01,2013-11-15 15:10:00,
2013-11-15 10:15:00,80.1,60.9,30.05,East,90,4.5,8.1,52,0.00,,---,0.00,VWS V13.01,2013-11-15 15:15:00,
2013-11-15 10:20:00,80.6,61.4,30.04,ENE,68,8.7,13.0,52,0.00,,---,0.00,VWS V13.01,2013-11-15 15:20:00,
2013-11-15 10:25:00,80.8,61.5,30.05,SE,135,6.3,13.0,52,0.00,,---,0.00,VWS V13.01,2013-11-15 15:25:00,
2013-11-15 10:30:00,81.0,61.7,30.05,ESE,112,3.1,13.0,52,0.00,,---,0.00,VWS V13.01,2013-11-15 15:30:00,
2013-11-15 10:35:00,81.0,61.7,30.05,East,90,6.7,13.0,52,0.00,,---,0.00,VWS V13.01,2013-11-15 15:35:00,
2013-11-15 10:40:00,81.0,60.0,30.05,ENE,68,6.9,13.0,49,0.00,,---,0.00,VWS V13.01,2013-11-15 15:40:00,
2013-11-15 10:45:00,81.5,60.5,30.04,East,90,4.5,13.0,49,0.00,,---,0.00,VWS V13.01,2013-11-15 15:45:00,
2013-11-15 10:50:00,81.5,60.5,30.04,East,90,7.8,13.0,49,0.00,,---,0.00,VWS V13.01,2013-11-15 15:50:00,
2013-11-15 10:55:00,81.3,59.8,30.04,SE,135,10.3,13.0,48,0.00,,---,0.00,VWS V13.01,2013-11-15 15:55:00,
2013-11-15 11:00:00,81.7,60.1,30.04,SE,135,7.4,9.4,48,0.00,,---,0.00,VWS V13.01,2013-11-15 16:00:00,
2013-11-15 11:05:00,81.5,59.9,30.04,ESE,112,5.8,11.9,48,0.00,,---,0.00,VWS V13.01,2013-11-15 16:05:00,
2013-11-15 11:10:00,81.0,59.4,30.04,SE,135,0.0,11.9,48,0.00,,---,0.00,VWS V13.01,2013-11-15 16:10:00,
2013-11-15 11:15:00,81.0,59.4,30.04,ENE,68,3.4,11.9,48,0.00,,---,0.00,VWS V13.01,2013-11-15 16:15:00,
2013-11-15 11:20:00,80.8,59.3,30.03,ESE,112,2.5,11.9,48,0.00,,---,0.00,VWS V13.01,2013-11-15 16:20:00,
2013-11-15 11:25:00,80.8,59.9,30.02,East,90,5.4,11.9,49,0.00,,---,0.00,VWS V13.01,2013-11-15 16:25:00,
2013-11-15 11:30:00,80.8,59.9,30.03,East,90,11.6,11.9,49,0.00,,---,0.00,VWS V13.01,2013-11-15 16:30:00,
2013-11-15 11:35:00,81.1,60.2,30.02,SE,135,0.0,11.9,49,0.00,,---,0.00,VWS V13.01,2013-11-15 16:35:00,
2013-11-15 11:40:00,81.7,60.7,30.02,ESE,112,2.0,11.9,49,0.00,,---,0.00,VWS V13.01,2013-11-15 16:40:00,
2013-11-15 11:45:00,82.8,61.7,30.01,ESE,112,5.4,12.5,49,0.00,,---,0.00,VWS V13.01,2013-11-15 16:45:00,
2013-11-15 11:50:00,83.1,62.0,30.01,SSE,158,5.1,12.5,49,0.00,,---,0.00,VWS V13.01,2013-11-15 16:50:00,
2013-11-15 11:55:00,83.3,62.2,30.01,SE,135,11.2,13.2,49,0.00,,---,0.00,VWS V13.01,2013-11-15 16:55:00,
2013-11-15 12:00:00,83.8,62.7,30.01,SSE,158,5.4,7.6,49,0.00,,---,0.00,VWS V13.01,2013-11-15 17:00:00,
2013-11-15 12:05:00,83.5,62.3,30.01,ESE,112,8.5,9.6,49,0.00,,---,0.00,VWS V13.01,2013-11-15 17:05:00,
2013-11-15 12:10:00,83.3,62.2,30.00,SE,135,10.5,10.5,49,0.00,,---,0.00,VWS V13.01,2013-11-15 17:10:00,
2013-11-15 12:15:00,82.8,59.9,30.00,ENE,68,6.7,10.5,46,0.00,,---,0.00,VWS V13.01,2013-11-15 17:15:00,
2013-11-15 12:20:00,82.9,60.0,30.01,ESE,112,3.8,10.5,46,0.00,,---,0.00,VWS V13.01,2013-11-15 17:20:00,
2013-11-15 12:25:00,82.8,59.9,30.00,ENE,68,2.2,10.5,46,0.00,,---,0.00,VWS V13.01,2013-11-15 17:25:00,
2013-11-15 12:30:00,82.6,60.3,30.00,East,90,2.9,10.5,47,0.00,,---,0.00,VWS V13.01,2013-11-15 17:30:00,
2013-11-15 12:35:00,82.6,60.3,30.00,SSE,158,3.8,10.5,47,0.00,,---,0.00,VWS V13.01,2013-11-15 17:35:00,
2013-11-15 12:40:00,82.6,60.3,29.99,ESE,112,3.6,10.5,47,0.00,,---,0.00,VWS V13.01,2013-11-15 17:40:00,
2013-11-15 12:45:00,82.4,60.2,29.99,SE,135,7.6,10.5,47,0.00,,---,0.00,VWS V13.01,2013-11-15 17:45:00,
2013-11-15 12:50:00,82.0,60.4,29.99,ENE,68,4.0,10.5,48,0.00,,---,0.00,VWS V13.01,2013-11-15 17:50:00,
2013-11-15 12:55:00,81.7,60.1,29.99,SSE,158,7.6,11.0,48,0.00,,---,0.00,VWS V13.01,2013-11-15 17:55:00,
2013-11-15 13:00:00,81.7,60.1,29.99,SE,135,10.7,10.7,48,0.00,,---,0.00,VWS V13.01,2013-11-15 18:00:00,
2013-11-15 13:05:00,81.7,60.7,29.98,ENE,68,3.6,10.7,49,0.00,,---,0.00,VWS V13.01,2013-11-15 18:05:00,
2013-11-15 13:10:00,81.5,60.5,29.98,ESE,112,3.1,10.7,49,0.00,,---,0.00,VWS V13.01,2013-11-15 18:10:00,
2013-11-15 13:15:00,81.7,60.7,29.98,ENE,68,3.6,10.7,49,0.00,,---,0.00,VWS V13.01,2013-11-15 18:15:00,
2013-11-15 13:20:00,81.5,60.5,29.97,ESE,112,2.5,10.7,49,0.00,,---,0.00,VWS V13.01,2013-11-15 18:20:00,
2013-11-15 13:25:00,81.5,60.5,29.97,SE,135,3.1,10.7,49,0.00,,---,0.00,VWS V13.01,2013-11-15 18:25:00,
2013-11-15 13:30:00,82.2,61.2,29.97,SSE,158,8.1,10.7,49,0.00,,---,0.00,VWS V13.01,2013-11-15 18:30:00,
2013-11-15 13:35:00,82.8,61.7,29.97,East,90,1.6,11.9,49,0.00,,---,0.00,VWS V13.01,2013-11-15 18:35:00,
2013-11-15 13:40:00,83.1,62.0,29.96,East,90,5.1,11.9,49,0.00,,---,0.00,VWS V13.01,2013-11-15 18:40:00,
2013-11-15 13:45:00,83.8,62.7,29.96,ESE,112,4.9,12.3,49,0.00,,---,0.00,VWS V13.01,2013-11-15 18:45:00,
2013-11-15 13:50:00,83.8,61.5,29.96,ESE,112,2.9,12.3,47,0.00,,---,0.00,VWS V13.01,2013-11-15 18:50:00,
2013-11-15 13:55:00,83.7,61.3,29.96,SSE,158,5.4,12.3,47,0.00,,---,0.00,VWS V13.01,2013-11-15 18:55:00,
2013-11-15 14:00:00,83.1,60.8,29.96,ESE,112,0.0,2.9,47,0.00,,---,0.00,VWS V13.01,2013-11-15 19:00:00,
2013-11-15 14:05:00,82.6,60.3,29.96,ESE,112,6.5,10.5,47,0.00,,---,0.00,VWS V13.01,2013-11-15 19:05:00,
2013-11-15 14:10:00,82.0,59.8,29.95,SE,135,3.1,12.3,47,0.00,,---,0.00,VWS V13.01,2013-11-15 19:10:00,
2013-11-15 14:15:00,81.5,59.3,29.95,East,90,1.1,12.3,47,0.00,,---,0.00,VWS V13.01,2013-11-15 19:15:00,
2013-11-15 14:20:00,81.5,59.3,29.95,East,90,8.1,14.5,47,0.00,,---,0.00,VWS V13.01,2013-11-15 19:20:00,
2013-11-15 14:25:00,81.9,59.7,29.95,ENE,68,2.2,14.5,47,0.00,,---,0.00,VWS V13.01,2013-11-15 19:25:00,
2013-11-15 14:30:00,82.2,60.0,29.94,East,90,6.5,14.5,47,0.00,,---,0.00,VWS V13.01,2013-11-15 19:30:00,
2013-11-15 14:35:00,82.2,60.0,29.94,East,90,6.0,14.5,47,0.00,,---,0.00,VWS V13.01,2013-11-15 19:35:00,
2013-11-15 14:40:00,82.4,61.3,29.94,East,90,4.3,14.5,49,0.00,,---,0.00,VWS V13.01,2013-11-15 19:40:00,
2013-11-15 14:45:00,82.2,61.2,29.94,East,90,2.0,14.5,49,0.00,,---,0.00,VWS V13.01,2013-11-15 19:45:00,
2013-11-15 14:50:00,82.2,61.2,29.94,SE,135,8.1,14.5,49,0.00,,---,0.00,VWS V13.01,2013-11-15 19:50:00,
2013-11-15 14:55:00,82.0,60.4,29.94,ENE,68,2.7,14.5,48,0.00,,---,0.00,VWS V13.01,2013-11-15 19:55:00,
2013-11-15 15:00:00,81.7,60.1,29.95,ENE,68,4.0,4.0,48,0.00,,---,0.00,VWS V13.01,2013-11-15 20:00:00,
2013-11-15 15:05:00,81.3,59.8,29.95,ESE,112,6.3,8.3,48,0.00,,---,0.00,VWS V13.01,2013-11-15 20:05:00,
2013-11-15 15:10:00,81.0,60.0,29.94,ENE,68,5.4,10.5,49,0.00,,---,0.00,VWS V13.01,2013-11-15 20:10:00,
2013-11-15 15:16:00,80.8,60.4,29.95,East,90,3.8,11.2,50,0.00,,---,0.00,VWS V13.01,2013-11-15 20:16:00,
2013-11-15 15:20:00,80.2,59.9,29.94,East,90,1.3,11.2,50,0.00,,---,0.00,VWS V13.01,2013-11-15 20:20:00,
2013-11-15 15:25:00,80.2,59.9,29.94,SE,135,6.5,11.2,50,0.00,,---,0.00,VWS V13.01,2013-11-15 20:25:00,
2013-11-15 15:30:00,80.1,60.3,29.94,ENE,68,8.1,11.2,51,0.00,,---,0.00,VWS V13.01,2013-11-15 20:30:00,
2013-11-15 15:35:00,80.2,61.0,29.94,East,90,3.1,11.2,52,0.00,,---,0.00,VWS V13.01,2013-11-15 20:35:00,
2013-11-15 15:40:00,80.1,60.9,29.94,ESE,112,2.0,11.2,52,0.00,,---,0.00,VWS V13.01,2013-11-15 20:40:00,
2013-11-15 15:45:00,80.1,60.9,29.94,East,90,5.4,13.4,52,0.00,,---,0.00,VWS V13.01,2013-11-15 20:45:00,
2013-11-15 15:50:00,80.2,61.0,29.94,East,90,5.8,13.4,52,0.00,,---,0.00,VWS V13.01,2013-11-15 20:50:00,
2013-11-15 15:55:00,80.2,61.0,29.94,ENE,68,6.3,13.4,52,0.00,,---,0.00,VWS V13.01,2013-11-15 20:55:00,
2013-11-15 16:00:00,80.2,61.0,29.94,ESE,112,4.3,4.5,52,0.00,,---,0.00,VWS V13.01,2013-11-15 21:00:00,
2013-11-15 16:05:00,80.2,61.0,29.94,East,90,1.6,6.3,52,0.00,,---,0.00,VWS V13.01,2013-11-15 21:05:00,
2013-11-15 16:10:00,80.1,60.9,29.94,ENE,68,4.0,7.8,52,0.00,,---,0.00,VWS V13.01,2013-11-15 21:10:00,
2013-11-15 16:15:00,79.9,60.7,29.94,ESE,112,3.1,8.1,52,0.00,,---,0.00,VWS V13.01,2013-11-15 21:15:00,
2013-11-15 16:20:00,79.7,60.5,29.94,ENE,68,8.3,10.7,52,0.00,,---,0.00,VWS V13.01,2013-11-15 21:20:00,
2013-11-15 16:25:00,79.5,60.4,29.94,ENE,68,7.6,12.1,52,0.00,,---,0.00,VWS V13.01,2013-11-15 21:25:00,
2013-11-15 16:30:00,79.7,61.1,29.94,ENE,68,3.4,12.1,53,0.00,,---,0.00,VWS V13.01,2013-11-15 21:30:00,
2013-11-15 16:35:00,79.3,60.7,29.94,ESE,112,3.1,12.1,53,0.00,,---,0.00,VWS V13.01,2013-11-15 21:35:00,
2013-11-15 16:40:00,79.2,60.6,29.94,ENE,68,8.1,12.1,53,0.00,,---,0.00,VWS V13.01,2013-11-15 21:40:00,
2013-11-15 16:45:00,79.2,60.6,29.95,ENE,68,7.4,12.1,53,0.00,,---,0.00,VWS V13.01,2013-11-15 21:45:00,
2013-11-15 16:50:00,79.0,60.4,29.95,East,90,2.9,12.1,53,0.00,,---,0.00,VWS V13.01,2013-11-15 21:50:00,
2013-11-15 16:55:00,78.8,60.2,29.94,ENE,68,7.6,12.1,53,0.00,,---,0.00,VWS V13.01,2013-11-15 21:55:00,
2013-11-15 17:00:00,78.8,60.2,29.95,ENE,68,8.5,9.6,53,0.00,,---,0.00,VWS V13.01,2013-11-15 22:00:00,
2013-11-15 17:05:00,78.6,61.1,29.95,ENE,68,6.0,10.7,55,0.00,,---,0.00,VWS V13.01,2013-11-15 22:05:00,
2013-11-15 17:10:00,78.3,60.8,29.95,ENE,68,4.5,11.4,55,0.00,,---,0.00,VWS V13.01,2013-11-15 22:10:00,
2013-11-15 17:15:00,78.3,61.3,29.95,East,90,4.3,11.4,56,0.00,,---,0.00,VWS V13.01,2013-11-15 22:15:00,
2013-11-15 17:20:00,78.3,61.3,29.95,ESE,112,4.0,11.4,56,0.00,,---,0.00,VWS V13.01,2013-11-15 22:20:00,
2013-11-15 17:25:00,78.3,60.8,29.94,ENE,68,4.0,11.4,55,0.00,,---,0.00,VWS V13.01,2013-11-15 22:25:00,
2013-11-15 17:30:00,78.4,61.0,29.94,ENE,68,1.1,11.4,55,0.00,,---,0.00,VWS V13.01,2013-11-15 22:30:00,
2013-11-15 17:35:00,78.3,60.8,29.94,SE,135,2.0,11.4,55,0.00,,---,0.00,VWS V13.01,2013-11-15 22:35:00,
2013-11-15 17:40:00,78.3,60.8,29.94,ESE,112,0.0,11.4,55,0.00,,---,0.00,VWS V13.01,2013-11-15 22:40:00,
2013-11-15 17:45:00,78.3,60.8,29.94,SE,135,0.0,11.4,55,0.00,,---,0.00,VWS V13.01,2013-11-15 22:45:00,
2013-11-15 17:50:00,78.3,60.8,29.94,SE,135,0.0,11.4,55,0.00,,---,0.00,VWS V13.01,2013-11-15 22:50:00,
2013-11-15 17:55:00,77.9,60.5,29.95,SSE,158,5.6,11.4,55,0.00,,---,0.00,VWS V13.01,2013-11-15 22:55:00,
2013-11-15 18:00:00,77.4,60.0,29.95,SE,135,9.2,9.2,55,0.00,,---,0.00,VWS V13.01,2013-11-15 23:00:00,
2013-11-15 18:05:00,76.6,59.3,29.95,ESE,112,4.7,9.2,55,0.00,,---,0.00,VWS V13.01,2013-11-15 23:05:00,
2013-11-15 18:10:00,76.3,63.7,29.95,ESE,112,0.0,9.2,65,0.00,,---,0.00,VWS V13.01,2013-11-15 23:10:00,
2013-11-15 18:15:00,75.9,63.3,29.95,SSE,158,4.3,9.8,65,0.00,,---,0.00,VWS V13.01,2013-11-15 23:15:00,
2013-11-15 18:20:00,75.6,63.0,29.94,SSE,158,0.0,9.8,65,0.00,,---,0.00,VWS V13.01,2013-11-15 23:20:00,
2013-11-15 18:25:00,75.4,62.8,29.94,SSE,158,2.9,9.8,65,0.00,,---,0.00,VWS V13.01,2013-11-15 23:25:00,
2013-11-15 18:30:00,75.4,62.8,29.94,ESE,112,0.0,9.8,65,0.00,,---,0.00,VWS V13.01,2013-11-15 23:30:00,
2013-11-15 18:35:00,75.4,62.8,29.94,ESE,112,0.0,9.8,65,0.00,,---,0.00,VWS V13.01,2013-11-15 23:35:00,
2013-11-15 18:40:00,75.4,64.9,29.94,ESE,112,0.0,9.8,70,0.00,,---,0.00,VWS V13.01,2013-11-15 23:40:00,
2013-11-15 18:45:00,75.2,64.8,29.94,ESE,112,0.0,9.8,70,0.00,,---,0.00,VWS V13.01,2013-11-15 23:45:00,
2013-11-15 18:50:00,75.4,64.9,29.94,ESE,112,0.0,9.8,70,0.00,,---,0.00,VWS V13.01,2013-11-15 23:50:00,
2013-11-15 18:55:00,75.4,64.9,29.95,ESE,112,0.0,9.8,70,0.00,,---,0.00,VWS V13.01,2013-11-15 23:55:00,
2013-11-15 19:00:00,75.4,64.9,29.95,ESE,112,0.0,0.0,70,0.00,,---,0.00,VWS V13.01,2013-11-16 00:00:00,
2013-11-15 19:05:00,75.4,64.9,29.95,ESE,112,0.0,0.0,70,0.00,,---,0.00,VWS V13.01,2013-11-16 00:05:00,
2013-11-15 19:10:00,75.4,64.9,29.95,ENE,68,7.8,7.8,70,0.00,,---,0.00,VWS V13.01,2013-11-16 00:10:00,
2013-11-15 19:15:00,75.6,65.1,29.95,ENE,68,1.3,7.8,70,0.00,,---,0.00,VWS V13.01,2013-11-16 00:15:00,
2013-11-15 19:20:00,76.3,63.7,29.95,ENE,68,2.9,8.3,65,0.00,,---,0.00,VWS V13.01,2013-11-16 00:20:00,
2013-11-15 19:25:00,76.5,62.9,29.96,ESE,112,5.4,8.3,63,0.00,,---,0.00,VWS V13.01,2013-11-16 00:25:00,
2013-11-15 19:30:00,77.0,62.5,29.96,ENE,68,3.8,10.5,61,0.00,,---,0.00,VWS V13.01,2013-11-16 00:30:00,
2013-11-15 19:35:00,77.4,62.4,29.96,ENE,68,3.4,10.5,60,0.00,,---,0.00,VWS V13.01,2013-11-16 00:35:00,
2013-11-15 19:40:00,77.4,61.9,29.97,ENE,68,1.8,10.5,59,0.00,,---,0.00,VWS V13.01,2013-11-16 00:40:00,
2013-11-15 19:45:00,77.5,62.1,29.96,ENE,68,4.0,10.5,59,0.00,,---,0.00,VWS V13.01,2013-11-16 00:45:00,
2013-11-15 19:50:00,77.5,61.6,29.97,ESE,112,3.4,10.5,58,0.00,,---,0.00,VWS V13.01,2013-11-16 00:50:00,
2013-11-15 19:55:00,77.7,61.8,29.97,ESE,112,2.9,10.5,58,0.00,,---,0.00,VWS V13.01,2013-11-16 00:55:00,
2013-11-15 20:00:00,77.7,61.3,29.97,ENE,68,2.9,3.8,57,0.00,,---,0.00,VWS V13.01,2013-11-16 01:00:00,
2013-11-15 20:05:00,77.7,60.8,29.97,East,90,5.8,10.1,56,0.00,,---,0.00,VWS V13.01,2013-11-16 01:05:00,
2013-11-15 20:10:00,77.7,60.8,29.97,East,90,8.5,10.1,56,0.00,,---,0.00,VWS V13.01,2013-11-16 01:10:00,
2013-11-15 20:15:00,77.7,60.3,29.97,ENE,68,4.0,10.1,55,0.00,,---,0.00,VWS V13.01,2013-11-16 01:15:00,
2013-11-15 20:20:00,77.9,60.5,29.97,ENE,68,6.7,10.1,55,0.00,,---,0.00,VWS V13.01,2013-11-16 01:20:00,
2013-11-15 20:25:00,77.9,60.5,29.97,ESE,112,7.4,10.1,55,0.00,,---,0.00,VWS V13.01,2013-11-16 01:25:00,
2013-11-15 20:30:00,77.9,59.9,29.97,ENE,68,6.3,10.1,54,0.00,,---,0.00,VWS V13.01,2013-11-16 01:30:00,
2013-11-15 20:35:00,77.9,59.9,29.97,ENE,68,5.4,11.9,54,0.00,,---,0.00,VWS V13.01,2013-11-16 01:35:00,
2013-11-15 20:40:00,77.9,59.4,29.97,East,90,2.2,11.9,53,0.00,,---,0.00,VWS V13.01,2013-11-16 01:40:00,
2013-11-15 20:45:00,77.9,59.4,29.97,ESE,112,3.1,11.9,53,0.00,,---,0.00,VWS V13.01,2013-11-16 01:45:00,
2013-11-15 20:50:00,77.9,59.4,29.97,South,180,3.1,11.9,53,0.00,,---,0.00,VWS V13.01,2013-11-16 01:50:00,
2013-11-15 20:55:00,77.9,59.9,29.98,ESE,112,5.8,11.9,54,0.00,,---,0.00,VWS V13.01,2013-11-16 01:55:00,
2013-11-15 21:00:00,77.9,59.9,29.98,ENE,68,4.0,4.3,54,0.00,,---,0.00,VWS V13.01,2013-11-16 02:00:00,
2013-11-15 21:05:00,77.9,59.9,29.98,ESE,112,3.4,8.5,54,0.00,,---,0.00,VWS V13.01,2013-11-16 02:05:00,
2013-11-15 21:10:00,77.9,59.9,29.98,ESE,112,6.3,8.5,54,0.00,,---,0.00,VWS V13.01,2013-11-16 02:10:00,
2013-11-15 21:15:00,77.9,59.4,29.98,East,90,3.1,8.5,53,0.00,,---,0.00,VWS V13.01,2013-11-16 02:15:00,
2013-11-15 21:20:00,77.7,60.3,29.98,ENE,68,5.6,9.8,55,0.00,,---,0.00,VWS V13.01,2013-11-16 02:20:00,
2013-11-15 21:25:00,77.9,59.9,29.97,ENE,68,1.3,9.8,54,0.00,,---,0.00,VWS V13.01,2013-11-16 02:25:00,
2013-11-15 21:30:00,77.9,59.9,29.98,ESE,112,2.5,9.8,54,0.00,,---,0.00,VWS V13.01,2013-11-16 02:30:00,
2013-11-15 21:35:00,77.7,59.8,29.97,SSE,158,3.1,9.8,54,0.00,,---,0.00,VWS V13.01,2013-11-16 02:35:00,
2013-11-15 21:40:00,77.9,59.9,29.97,East,90,4.9,9.8,54,0.00,,---,0.00,VWS V13.01,2013-11-16 02:40:00,
2013-11-15 21:45:00,77.9,59.9,29.98,SSE,158,6.3,9.8,54,0.00,,---,0.00,VWS V13.01,2013-11-16 02:45:00,
2013-11-15 21:50:00,77.9,59.9,29.98,ESE,112,0.0,9.8,54,0.00,,---,0.00,VWS V13.01,2013-11-16 02:50:00,
2013-11-15 21:55:00,77.9,59.9,29.97,ESE,112,5.4,9.8,54,0.00,,---,0.00,VWS V13.01,2013-11-16 02:55:00,
2013-11-15 22:00:00,77.9,59.9,29.98,East,90,5.4,10.1,54,0.00,,---,0.00,VWS V13.01,2013-11-16 03:00:00,
2013-11-15 22:05:00,77.9,59.9,29.98,East,90,2.0,10.1,54,0.00,,---,0.00,VWS V13.01,2013-11-16 03:05:00,
2013-11-15 22:10:00,77.9,60.5,29.97,East,90,5.1,10.1,55,0.00,,---,0.00,VWS V13.01,2013-11-16 03:10:00,
2013-11-15 22:15:00,77.9,60.5,29.98,ESE,112,1.6,10.1,55,0.00,,---,0.00,VWS V13.01,2013-11-16 03:15:00,
2013-11-15 22:20:00,77.9,59.9,29.97,ENE,68,2.7,10.3,54,0.00,,---,0.00,VWS V13.01,2013-11-16 03:20:00,
2013-11-15 22:25:00,77.9,59.9,29.98,ENE,68,0.0,10.3,54,0.00,,---,0.00,VWS V13.01,2013-11-16 03:25:00,
2013-11-15 22:30:00,77.9,59.9,29.98,ENE,68,4.9,10.3,54,0.00,,---,0.00,VWS V13.01,2013-11-16 03:30:00,
2013-11-15 22:35:00,77.9,60.5,29.97,ESE,112,4.9,10.3,55,0.00,,---,0.00,VWS V13.01,2013-11-16 03:35:00,
2013-11-15 22:40:00,77.9,59.9,29.98,ESE,112,4.7,11.6,54,0.00,,---,0.00,VWS V13.01,2013-11-16 03:40:00,
2013-11-15 22:45:00,77.9,59.9,29.98,ESE,112,3.6,11.6,54,0.00,,---,0.00,VWS V13.01,2013-11-16 03:45:00,
2013-11-15 22:50:00,77.7,60.3,29.98,East,90,3.1,11.6,55,0.00,,---,0.00,VWS V13.01,2013-11-16 03:50:00,
2013-11-15 22:55:00,77.7,60.8,29.97,ENE,68,3.1,11.6,56,0.00,,---,0.00,VWS V13.01,2013-11-16 03:55:00,
2013-11-15 23:00:00,77.7,60.8,29.98,ESE,112,2.5,2.5,56,0.00,,---,0.00,VWS V13.01,2013-11-16 04:00:00,
2013-11-15 23:05:00,77.7,60.8,29.98,SE,135,2.0,4.5,56,0.00,,---,0.00,VWS V13.01,2013-11-16 04:05:00,
2013-11-15 23:10:00,77.5,61.1,29.98,East,90,4.7,7.4,57,0.00,,---,0.00,VWS V13.01,2013-11-16 04:10:00,
2013-11-15 23:15:00,77.5,61.1,29.97,SE,135,4.5,7.4,57,0.00,,---,0.00,VWS V13.01,2013-11-16 04:15:00,
2013-11-15 23:20:00,77.5,61.1,29.97,SE,135,2.2,7.4,57,0.00,,---,0.00,VWS V13.01,2013-11-16 04:20:00,
2013-11-15 23:25:00,77.5,61.1,29.97,ESE,112,4.3,7.4,57,0.00,,---,0.00,VWS V13.01,2013-11-16 04:25:00,
2013-11-15 23:30:00,77.5,61.1,29.98,East,90,0.0,7.4,57,0.00,,---,0.00,VWS V13.01,2013-11-16 04:30:00,
2013-11-15 23:35:00,77.7,61.8,29.98,ESE,112,1.1,7.4,58,0.00,,---,0.00,VWS V13.01,2013-11-16 04:35:00,
2013-11-15 23:40:00,77.7,61.8,29.98,ENE,68,1.8,7.4,58,0.00,,---,0.00,VWS V13.01,2013-11-16 04:40:00,
2013-11-15 23:45:00,77.7,61.8,29.98,SE,135,0.0,7.4,58,0.00,,---,0.00,VWS V13.01,2013-11-16 04:45:00,
2013-11-15 23:50:00,77.7,61.8,29.98,ESE,112,0.0,7.4,58,0.00,,---,0.00,VWS V13.01,2013-11-16 04:50:00,
2013-11-15 23:55:00,77.5,61.6,29.97,ENE,68,0.0,7.4,58,0.00,,---,0.00,VWS V13.01,2013-11-16 04:55:00,